{"data":{"norad_id":66230,"epoch":"2026-05-24T22:39:27.265248Z","epoch_age_seconds":80624,"freshness":"FRESH","line1":"1 66230U 25244AA  26144.94406557  .00011034  00000+0  38405-3 0  9992","line2":"2 66230  53.1571 235.7663 0001000  71.0511 289.0598 15.30205084 33330","mean_motion":15.30205084,"eccentricity":0.0001,"inclination_deg":53.1571,"raan_deg":235.7663,"arg_perigee_deg":71.0511,"mean_anomaly_deg":289.0598,"bstar":0.00038405,"rev_number":3333,"period_min":94.105033047975,"perigee_km":474.51455586479,"apogee_km":475.8852232427,"semimajor_km":6853.3368895537,"source":"CELESTRAK","updated_at":"2026-05-25T13:38:21.132119Z"}}